星链-6342 (STARLINK-6342 )

导读

STARLINK-6342是美国太空探索技术公司(SpaceX)星链(Starlink)星座中的一颗互联网通信卫星,于2023年5月31日由猎鹰9号火箭发射升空。作为星链低轨卫星互联网星座的组成部分,它为全球提供高速低延迟的宽带互联网服务,尤其覆盖偏远地区和网络基础设施匮乏区域,进一步扩展了星链星座的服务覆盖范围与网络容量。

Basic Information
目录编号:
56770
目录名称:
STARLINK-6342
国际标识:
2023-078D
轨道中心:
EARTH
卫星名称:
星链-6342
卫星全名:
星链-6342 (STARLINK-6342 )
卫星状态:
在轨 (已飞行1110 天)
发射日期:
2023-05-31 UTC
国别 :
美国 (US)
星等 :
--
Orbit Information
数据来源 国际轨道数据 AOE轨道数据
星历时间 2026-06-14T22:27:31+0800
7小时前
查看轨道信息
2026-06-13T05:00:00+0800
2天前
查看轨道信息
半长轴 6950.199km 6950.203km
偏心率 0.0003011 0.0001828
轨道倾角 69.999° 70.000°
近地点辐角 266.983° 357.365°
升交点赤经 120.108° 124.463°
平近点角 93.099° 47.569°
近地点 569.969km 570.795km
远地点 574.155km 573.337km
周期 96.107分钟 96.107分钟
每日圈数 14.983283 14.983268
Detailed Information
固有亮度:
5
最大亮度:
2.5
卫星平台:
Starlink v1.5
覆盖范围:
全球
运营商:
太空探索技术公司
运营商所在国:
美国
制造商(研发单位):
太空探索技术公司
制造商所在国:
美国
使用方式:
暂无
Satellite Introduction
星链(Starlink)计划是由太空探索技术公司(SpaceX)提出的一个巨型低轨卫星互联网星座项目,计划在2019年至2024年间在太空搭建由约1.2万颗卫星组成的“星链”网络,其中1584颗将部署在地球上空550千米处的近地轨道,并从2020年开始工作。该卫星仍在工作。
2D Orbit Map
3D Orbit Map
Orbit Altitude Analysis Chart
Orbit Inclination Analysis Chart
Orbit Comprehensive Analysis Chart
View Comprehensive Chart